Weather History for Westerly, RI

Change the Weather History Date:

Sunday, November 25, 2012

  Actual Average (KGON) Record (KGON)
Temperature  
Mean Temperature 34 °F -  
Max Temperature 39 °F 48 °F 65 °F (1979)
Min Temperature 30 °F 30 °F 17 °F (2000)
Degree Days  
Heating Degree Days 30    
Moisture  
Dew Point 19 °F    
Average Humidity 52    
Maximum Humidity 66    
Minimum Humidity 38    
Precipitation  
Precipitation 0.00 in - - ()
Sea Level Pressure  
Sea Level Pressure 29.84 in    
Wind  
Wind Speed 7 mph (West)    
Max Wind Speed 12 mph    
Max Gust Speed 22 mph    
Visibility 10 miles    
Events      
Averages and records for this station are not official NWS values.
T = Trace of Precipitation, MM = Missing Value Source: NWS Daily Summary

Daily Weather History Graph

Daily Weather History Graph

Search for Another Location

Airport:

Trip Planner

Search our weather history database for the weather conditions in past years. The results will help you decide how hot, cold, wet, or windy it might be!

Date:

Astronomy

Nov. 25, 2012 Rise Set
Actual Time 6:47 AM EST 4:20 PM EST
Civil Twilight 6:17 AM EST 4:51 PM EST
Nautical Twilight 5:43 AM EST 5:25 PM EST
Astronomical Twilight 5:10 AM EST 5:58 PM EST
Moon 2:37 PM EST (11/25) 3:57 AM EST (11/25)
Length of Visible Light 10h 33m
Length of Day
9h 32m
Waxing Gibbous, 93% of the Moon is Illuminated
Nov 25
Waxing Gibbous
Nov 28
Full
Dec 6
Last Quarter
Dec 13
New
Dec 20
First Quarter

Hourly Weather History & Observations

Time (EST) Temp. Windchill Dew Point Humidity Pressure Visibility Wind Dir Wind Speed Gust Speed Precip Events Conditions
12:53 AM 34.0 °F 28.0 °F 19.0 °F 54% 29.76 in 10.0 mi West 6.9 mph - N/A   Mostly Cloudy
1:53 AM 33.1 °F 26.1 °F 18.0 °F 54% 29.77 in 10.0 mi WNW 8.1 mph - N/A   Clear
2:53 AM 33.1 °F 27.7 °F 18.0 °F 54% 29.79 in 10.0 mi West 5.8 mph - N/A   Clear
3:53 AM 30.9 °F 25.2 °F 19.9 °F 64% 29.80 in 10.0 mi West 5.8 mph - N/A   Clear
4:53 AM 30.9 °F 27.5 °F 19.0 °F 61% 29.82 in 10.0 mi West 3.5 mph - N/A   Clear
5:53 AM 30.0 °F 26.5 °F 19.9 °F 66% 29.84 in 10.0 mi West 3.5 mph - N/A   Clear
6:53 AM 30.0 °F 26.5 °F 19.9 °F 66% 29.85 in 10.0 mi West 3.5 mph - N/A   Clear
7:53 AM 33.1 °F 24.9 °F 21.0 °F 61% 29.86 in 10.0 mi WSW 10.4 mph - N/A   Clear
8:53 AM 36.0 °F 29.0 °F 19.0 °F 50% 29.85 in 10.0 mi West 9.2 mph 16.1 mph N/A   Clear
9:53 AM 37.9 °F 30.5 °F 18.0 °F 45% 29.86 in 10.0 mi West 11.5 mph 21.9 mph N/A   Clear
10:53 AM 37.0 °F 29.3 °F 16.0 °F 42% 29.85 in 10.0 mi WNW 11.5 mph 20.7 mph N/A   Clear
11:53 AM 39.9 °F 33.9 °F 16.0 °F 38% 29.82 in 10.0 mi West 9.2 mph 17.3 mph N/A   Clear
12:53 PM 39.9 °F 33.4 °F 16.0 °F 38% 29.82 in 10.0 mi WNW 10.4 mph 18.4 mph N/A   Clear
1:53 PM 39.9 °F 35.1 °F 17.1 °F 40% 29.81 in 10.0 mi West 6.9 mph 17.3 mph N/A   Partly Cloudy
2:53 PM 39.9 °F 32.9 °F 18.0 °F 41% 29.81 in 10.0 mi West 11.5 mph 17.3 mph N/A   Partly Cloudy
3:53 PM 39.0 °F 33.4 °F 17.1 °F 41% 29.82 in 10.0 mi WNW 8.1 mph - N/A   Mostly Cloudy
4:53 PM 37.9 °F 35.5 °F 18.0 °F 45% 29.84 in 10.0 mi WSW 3.5 mph - N/A   Clear
5:53 PM 37.0 °F 33.3 °F 19.0 °F 48% 29.86 in 10.0 mi Variable 4.6 mph - N/A   Clear
6:53 PM 36.0 °F 31.1 °F 19.9 °F 52% 29.87 in 10.0 mi West 5.8 mph - N/A   Clear
7:53 PM 36.0 °F 30.3 °F 21.9 °F 57% 29.89 in 10.0 mi West 6.9 mph - N/A   Clear
8:53 PM 36.0 °F 29.6 °F 23.0 °F 59% 29.90 in 10.0 mi West 8.1 mph - N/A   Clear
9:53 PM 36.0 °F 32.1 °F 23.0 °F 59% 29.92 in 10.0 mi West 4.6 mph - N/A   Clear
10:53 PM 37.0 °F 31.0 °F 23.0 °F 57% 29.92 in 10.0 mi West 8.1 mph - N/A   Overcast
11:53 PM 37.0 °F 31.6 °F 21.9 °F 54% 29.92 in 10.0 mi West 6.9 mph - N/A   Mostly Cloudy